When you browse on this site, cookies collect data to enhance your experience and personalize the content and advertising you see.
Visit our Privacy Policy to learn more. By continuing to use the site, you agree to this use of cookies and data.
  • In Hungary
  • List of Countries
  • For 7 days
  • Water Temperature
  • Satellite Maps
  • Weather Map
  • News
  • Weather Widgets
  • user-avatar
    Login

    Hourly Weather Winchester

    Today, 23 February, Saturday

    Time Temperature Precipitation Wind Pressure Humidity
    00:00 +8°C° 0 mm 3 mps 769 mmHg 90%
    01:00 +8°C° 0 mm 3 mps 768 mmHg 90%
    02:00 +8°C° 0 mm 3 mps 768 mmHg 91%
    03:00 +7°C° 0 mm 4 mps 768 mmHg 91%
    04:00 +8°C° 0 mm 3 mps 768 mmHg 92%
    05:00 +8°C° 0 mm 3 mps 768 mmHg 94%
    06:00 +8°C° 0 mm 3 mps 768 mmHg 95%
    07:00 +9°C° 0 mm 3 mps 768 mmHg 93%
    08:00 +8°C° 0 mm 4 mps 768 mmHg 91%
    09:00 +10°C° 0 mm 4 mps 769 mmHg 89%
    10:00 +11°C° 0 mm 4 mps 769 mmHg 84%
    11:00 +12°C° 0 mm 4 mps 769 mmHg 79%
    12:00 +13°C° 0 mm 4 mps 769 mmHg 74%
    13:00 +13°C° 0 mm 4 mps 769 mmHg 74%
    14:00 +13°C° 0 mm 4 mps 768 mmHg 74%
    15:00 +12°C° 0 mm 4 mps 768 mmHg 73%
    16:00 +11°C° 0 mm 3 mps 768 mmHg 78%
    17:00 +10°C° 0 mm 2 mps 768 mmHg 84%
    18:00 +9°C° 0 mm 1 mps 769 mmHg 89%
    19:00 +9°C° 0 mm 1 mps 769 mmHg 89%
    20:00 +8°C° 0 mm 2 mps 769 mmHg 89%
    21:00 +8°C° 0 mm 2 mps 769 mmHg 88%
    22:00 +7°C° 0 mm 2 mps 769 mmHg 88%
    23:00 +7°C° 0 mm 2 mps 769 mmHg 87%

    Tomorrow, 24 February, Sunday

    Time Temperature Precipitation Wind Pressure Humidity
    00:00 +8°C° 0 mm 1 mps 770 mmHg 87%
    01:00 +8°C° 0 mm 1 mps 769 mmHg 88%
    02:00 +8°C° 0 mm 1 mps 769 mmHg 89%
    03:00 +8°C° 0 mm 1 mps 769 mmHg 90%
    04:00 +6°C° 0 mm 2 mps 769 mmHg 90%
    05:00 +6°C° 0 mm 2 mps 769 mmHg 90%
    06:00 +5°C° 0 mm 3 mps 770 mmHg 91%
    07:00 +5°C° 0 mm 3 mps 770 mmHg 87%
    08:00 +7°C° 0 mm 3 mps 770 mmHg 83%
    09:00 +8°C° 0 mm 3 mps 770 mmHg 80%
    10:00 +9°C° 0 mm 3 mps 771 mmHg 73%
    11:00 +10°C° 0 mm 3 mps 771 mmHg 67%
    12:00 +11°C° 0 mm 3 mps 771 mmHg 60%
    13:00 +12°C° 0 mm 3 mps 770 mmHg 60%
    14:00 +12°C° 0 mm 3 mps 770 mmHg 59%
    15:00 +12°C° 0 mm 3 mps 770 mmHg 58%
    16:00 +10°C° 0 mm 3 mps 770 mmHg 64%
    17:00 +8°C° 0 mm 2 mps 770 mmHg 69%
    18:00 +7°C° 0 mm 2 mps 771 mmHg 75%
    19:00 +6°C° 0 mm 2 mps 771 mmHg 75%
    20:00 +6°C° 0 mm 2 mps 771 mmHg 74%
    21:00 +5°C° 0 mm 2 mps 771 mmHg 74%
    22:00 +5°C° 0 mm 2 mps 771 mmHg 76%
    23:00 +5°C° 0 mm 2 mps 771 mmHg 78%

    Day after tomorrow, 25 February, Monday

    Time Temperature Precipitation Wind Pressure Humidity
    00:00 +5°C° 0 mm 2 mps 771 mmHg 80%
    01:00 +5°C° 0 mm 2 mps 771 mmHg 82%
    02:00 +5°C° 0 mm 2 mps 771 mmHg 84%
    03:00 +6°C° 0 mm 1 mps 771 mmHg 85%
    04:00 +5°C° 0 mm 2 mps 771 mmHg 86%
    05:00 +4°C° 0 mm 2 mps 771 mmHg 86%
    06:00 +4°C° 0 mm 2 mps 771 mmHg 86%
    07:00 +4°C° 0 mm 3 mps 771 mmHg 83%
    08:00 +5°C° 0 mm 3 mps 771 mmHg 79%
    09:00 +8°C° 0 mm 3 mps 771 mmHg 75%
    10:00 +9°C° 0 mm 3 mps 771 mmHg 71%
    11:00 +10°C° 0 mm 3 mps 771 mmHg 67%
    12:00 +12°C° 0 mm 3 mps 772 mmHg 62%
    13:00 +12°C° 0 mm 3 mps 771 mmHg 62%
    14:00 +12°C° 0 mm 3 mps 771 mmHg 61%
    15:00 +13°C° 0 mm 3 mps 771 mmHg 60%
    16:00 +11°C° 0 mm 3 mps 770 mmHg 66%
    17:00 +9°C° 0 mm 3 mps 770 mmHg 71%
    18:00 +8°C° 0 mm 3 mps 770 mmHg 77%
    19:00 +7°C° 0 mm 3 mps 770 mmHg 78%
    20:00 +7°C° 0 mm 3 mps 770 mmHg 79%
    21:00 +7°C° 0 mm 3 mps 770 mmHg 80%
    22:00 +7°C° 0 mm 3 mps 770 mmHg 83%
    23:00 +7°C° 0 mm 3 mps 770 mmHg 86%

    26 February, Tuesday

    Time Temperature Precipitation Wind Pressure Humidity
    00:00 +7°C° 0 mm 2 mps 770 mmHg 89%
    01:00 +7°C° 0 mm 2 mps 770 mmHg 89%
    02:00 +6°C° 0 mm 2 mps 769 mmHg 90%
    03:00 +6°C° 0 mm 2 mps 769 mmHg 90%
    04:00 +6°C° 0 mm 2 mps 769 mmHg 90%
    05:00 +6°C° 0 mm 2 mps 769 mmHg 90%
    06:00 +6°C° 0 mm 2 mps 769 mmHg 91%
    07:00 +7°C° 0 mm 2 mps 769 mmHg 88%
    08:00 +8°C° 0 mm 2 mps 769 mmHg 85%
    09:00 +9°C° 0 mm 2 mps 769 mmHg 83%
    10:00 +12°C° 0 mm 2 mps 769 mmHg 77%
    11:00 +12°C° 0 mm 3 mps 769 mmHg 72%
    12:00 +14°C° 0 mm 3 mps 769 mmHg 67%
    13:00 +14°C° 0 mm 3 mps 768 mmHg 67%
    14:00 +14°C° 0 mm 3 mps 768 mmHg 67%
    15:00 +14°C° 0 mm 3 mps 767 mmHg 68%
    16:00 +13°C° 0 mm 2 mps 767 mmHg 74%
    17:00 +10°C° 0 mm 2 mps 767 mmHg 81%
    18:00 +9°C° 0 mm 2 mps 767 mmHg 88%
    19:00 +8°C° 0 mm 2 mps 767 mmHg 88%
    20:00 +7°C° 0 mm 2 mps 767 mmHg 89%
    21:00 +8°C° 0 mm 1 mps 767 mmHg 89%
    22:00 +7°C° 0 mm 1 mps 767 mmHg 89%
    23:00 +7°C° 0 mm 1 mps 767 mmHg 89%

    27 February, Wednesday

    Time Temperature Precipitation Wind Pressure Humidity
    00:00 +7°C° 0 mm 1 mps 767 mmHg 88%
    01:00 +7°C° 0 mm 1 mps 767 mmHg 89%
    02:00 +6°C° 0 mm 0 mps 766 mmHg 89%
    03:00 +6°C° 0 mm 0 mps 766 mmHg 89%
    04:00 +6°C° 0 mm 0 mps 766 mmHg 89%
    05:00 +6°C° 0 mm 0 mps 766 mmHg 90%
    06:00 +6°C° 0 mm 0 mps 766 mmHg 90%
    07:00 +7°C° 0 mm 0 mps 766 mmHg 88%
    08:00 +8°C° 0 mm 0 mps 766 mmHg 86%
    09:00 +9°C° 0 mm 0 mps 766 mmHg 85%
    10:00 +12°C° 0 mm 1 mps 766 mmHg 81%
    11:00 +14°C° 0 mm 2 mps 766 mmHg 77%
    12:00 +14°C° 0 mm 3 mps 766 mmHg 73%
    13:00 +16°C° 0 mm 2 mps 766 mmHg 73%
    14:00 +16°C° 0 mm 2 mps 765 mmHg 72%
    15:00 +16°C° 0 mm 2 mps 765 mmHg 72%
    16:00 +15°C° 0 mm 2 mps 765 mmHg 78%
    17:00 +13°C° 0 mm 2 mps 765 mmHg 84%
    18:00 +10°C° 0 mm 2 mps 764 mmHg 90%
    19:00 +10°C° 0 mm 2 mps 764 mmHg 90%
    20:00 +10°C° 0 mm 1 mps 764 mmHg 90%
    21:00 +9°C° 0 mm 1 mps 764 mmHg 90%
    22:00 +9°C° 0 mm 1 mps 764 mmHg 90%
    23:00 +9°C° 0 mm 1 mps 764 mmHg 89%

    28 February, Thursday

    Time Temperature Precipitation Wind Pressure Humidity
    00:00 +8°C° 0 mm 1 mps 764 mmHg 89%
    01:00 +8°C° 0 mm 1 mps 764 mmHg 89%
    02:00 +8°C° 0 mm 1 mps 764 mmHg 89%
    03:00 +7°C° 0 mm 1 mps 764 mmHg 89%
    04:00 +7°C° 0 mm 1 mps 764 mmHg 89%
    05:00 +7°C° 0 mm 1 mps 764 mmHg 90%
    06:00 +7°C° 0 mm 1 mps 763 mmHg 90%
    07:00 +8°C° 0 mm 1 mps 764 mmHg 88%
    08:00 +9°C° 0 mm 1 mps 764 mmHg 86%
    09:00 +10°C° 0 mm 1 mps 764 mmHg 84%
    10:00 +12°C° 0 mm 1 mps 764 mmHg 79%
    11:00 +13°C° 0 mm 2 mps 764 mmHg 74%
    12:00 +15°C° 0 mm 2 mps 764 mmHg 69%
    13:00 +15°C° 0 mm 2 mps 764 mmHg 68%
    14:00 +16°C° 0 mm 2 mps 763 mmHg 67%
    15:00 +16°C° 0 mm 2 mps 763 mmHg 65%
    16:00 +14°C° 0 mm 2 mps 763 mmHg 72%
    17:00 +13°C° 0 mm 2 mps 763 mmHg 78%
    18:00 +10°C° 0 mm 2 mps 763 mmHg 84%
    19:00 +10°C° 0 mm 2 mps 763 mmHg 86%
    20:00 +9°C° 0 mm 2 mps 763 mmHg 87%
    21:00 +9°C° 0 mm 1 mps 764 mmHg 89%
    22:00 +9°C° 0 mm 1 mps 764 mmHg 89%
    23:00 +9°C° 0 mm 1 mps 764 mmHg 90%
    Show more